Time,TemperatureF,DewpointF,PressureIn,WindDirection,WindDirectionDegrees,WindSpeedMPH,WindSpeedGustMPH,Humidity,HourlyPrecipIn,Conditions,Clouds,dailyrainin,SoftwareType,DateUTC
2013-12-01 00:12:00,33.0,31.0,29.88,North,0,1.0,2.0,94,-99.99,,,-99.99,,2013-12-01 05:12:00,
2013-12-01 00:23:00,33.0,31.0,29.88,North,0,1.0,2.0,94,-99.99,,,-99.99,,2013-12-01 05:23:00,
2013-12-01 01:42:00,33.0,31.0,29.88,ESE,120,3.0,6.0,94,-99.99,,,-99.99,,2013-12-01 06:42:00,
2013-12-01 01:52:00,33.0,31.0,29.88,ESE,120,3.0,6.0,94,-99.99,,,-99.99,,2013-12-01 06:52:00,
2013-12-01 02:01:00,33.0,31.0,29.88,ESE,120,3.0,6.0,94,-99.99,,,-99.99,,2013-12-01 07:01:00,
2013-12-01 03:42:00,33.0,32.0,29.88,ESE,120,4.0,6.0,96,-99.99,,,-99.99,,2013-12-01 08:42:00,
2013-12-01 04:11:00,33.0,31.0,29.88,ESE,115,4.0,6.0,94,-99.99,,,-99.99,,2013-12-01 09:11:00,
2013-12-01 04:22:00,33.0,31.0,29.88,ESE,110,4.0,7.0,94,-99.99,,,-99.99,,2013-12-01 09:22:00,
2013-12-01 04:43:00,32.0,31.0,29.88,East,85,3.0,6.0,94,-99.99,,,-99.99,,2013-12-01 09:43:00,
2013-12-01 05:22:00,32.0,31.0,29.88,ESE,120,3.0,6.0,94,-99.99,,,-99.99,,2013-12-01 10:22:00,
2013-12-01 05:42:00,32.0,31.0,29.88,ESE,120,4.0,7.0,94,-99.99,,,-99.99,,2013-12-01 10:42:00,
2013-12-01 06:22:00,32.0,30.0,29.88,SE,135,4.0,8.0,90,-99.99,,,-99.99,,2013-12-01 11:22:00,
2013-12-01 07:22:00,32.0,28.0,29.88,SSE,150,9.0,11.0,85,-99.99,,,-99.99,,2013-12-01 12:22:00,
2013-12-01 07:52:00,32.0,28.0,29.88,SSE,165,7.0,11.0,85,-99.99,,,-99.99,,2013-12-01 12:52:00,
2013-12-01 08:22:00,32.0,28.0,29.88,South,170,6.0,11.0,84,-99.99,,,-99.99,,2013-12-01 13:22:00,
2013-12-01 09:22:00,32.0,27.0,29.88,South,190,8.0,11.0,83,-99.99,,,-99.99,,2013-12-01 14:22:00,
2013-12-01 10:22:00,32.0,27.0,29.88,SSE,165,5.0,10.0,81,-99.99,,,-99.99,,2013-12-01 15:22:00,
2013-12-01 12:22:00,32.0,25.0,29.88,SSW,195,8.0,13.0,76,-99.99,,,-99.99,,2013-12-01 17:22:00,
2013-12-01 13:22:00,32.0,25.0,29.88,SW,225,6.0,10.0,74,-99.99,,,-99.99,,2013-12-01 18:22:00,
2013-12-01 14:22:00,32.0,25.0,29.88,South,190,7.0,11.0,75,-99.99,,,-99.99,,2013-12-01 19:22:00,
2013-12-01 14:52:00,31.0,24.0,29.88,South,190,3.0,11.0,74,-99.99,,,-99.99,,2013-12-01 19:52:00,
2013-12-01 15:01:00,31.0,24.0,29.88,South,190,3.0,11.0,74,-99.99,,,-99.99,,2013-12-01 20:01:00,
2013-12-01 15:22:00,31.0,24.0,29.88,SW,225,4.0,7.0,74,-99.99,,,-99.99,,2013-12-01 20:22:00,
2013-12-01 15:42:00,31.0,24.0,29.88,South,190,4.0,8.0,73,-99.99,,,-99.99,,2013-12-01 20:42:00,
2013-12-01 17:22:00,31.0,24.0,29.88,SW,215,3.0,5.0,76,-99.99,,,-99.99,,2013-12-01 22:22:00,
2013-12-01 17:42:00,31.0,24.0,29.88,SSW,200,3.0,6.0,77,-99.99,,,-99.99,,2013-12-01 22:42:00,
2013-12-01 18:42:00,30.0,24.0,29.88,SSW,200,4.0,7.0,77,-99.99,,,-99.99,,2013-12-01 23:42:00,
2013-12-01 19:22:00,30.0,24.0,29.88,SSW,200,3.0,9.0,76,-99.99,,,-99.99,,2013-12-02 00:22:00,
2013-12-01 20:12:00,30.0,23.0,29.88,SSW,210,4.0,8.0,74,-99.99,,,-99.99,,2013-12-02 01:12:00,
2013-12-01 20:22:00,30.0,23.0,29.88,South,175,6.0,10.0,73,-99.99,,,-99.99,,2013-12-02 01:22:00,
2013-12-01 20:42:00,30.0,23.0,29.88,SSW,205,5.0,11.0,73,-99.99,,,-99.99,,2013-12-02 01:42:00,
2013-12-01 21:22:00,30.0,23.0,29.88,SW,215,6.0,9.0,75,-99.99,,,-99.99,,2013-12-02 02:22:00,
2013-12-01 21:42:00,30.0,24.0,29.88,South,190,5.0,8.0,76,-99.99,,,-99.99,,2013-12-02 02:42:00,
2013-12-01 22:22:00,30.0,24.0,29.88,SSW,210,4.0,6.0,77,-99.99,,,-99.99,,2013-12-02 03:22:00,
2013-12-01 23:23:00,30.0,22.0,29.88,WSW,240,3.0,7.0,73,-99.99,,,-99.99,,2013-12-02 04:23:00,
2013-12-01 23:43:00,29.0,22.0,29.88,SW,220,3.0,5.0,73,-99.99,,,-99.99,,2013-12-02 04:43:00,